"startDT [UTC]","vpos","CH4 [ppm]","stdev(CH4) [ppm]","CO2 [ppm]","stdev(CO2) [ppm]","H2O [ppm]","stdev(H2O)","p_LGR [torr]","T_LGR [C]","mt1_LGR [us]","mt2_LGR [us]","T_ECpre [C]","T_EC1 [C]","T_EC2 [C]","p_inlet [hPa]","p_in [hPa]","p_out [hPa]","T_inlet [C]","RH_inlet [%]","dwpt_inlet [C]","T_vent [C]","RH_vent [%]","dwpt_vent [C]","flow_vent [l min-1]","flow_inlet [l min-1]","dwpt_sample [C]","T_room [C]"
2012-06-02 00:00:00,0.0,1.8924,0.0009,401.59,0.21,0.1,5.0,138.05,30.42,24.64,36.47,1.02,4.35,-27.34,-52,534,-919,21.8,17.8,-3.7,22.2,1.6,-31.6,5.73,2.28,-29.5,28.2
2012-06-02 00:01:00,0.0,1.8917,0.0010,401.51,0.20,-0.6,2.2,138.05,30.42,24.65,36.47,0.96,2.35,-27.32,-52,534,-919,21.8,17.7,-3.8,22.2,1.6,-31.6,5.73,2.30,-29.5,28.3
2012-06-02 00:02:00,0.0,1.8918,0.0009,401.46,0.18,-0.3,3.5,138.04,30.42,24.64,36.48,1.05,0.45,-27.31,-52,534,-919,21.8,17.9,-3.7,22.2,1.6,-31.6,5.73,2.32,-29.5,28.2
2012-06-02 00:03:00,0.0,1.8922,0.0007,401.39,0.18,-1.0,0.0,138.04,30.43,24.64,36.48,1.06,-1.34,-27.29,-52,534,-919,21.8,16.6,-4.6,22.2,1.6,-31.7,5.73,2.28,-29.5,28.3
2012-06-02 00:04:00,0.0,,,,,,,,,,,0.99,-3.03,-27.28,-52,534,-919,21.8,16.6,-4.7,22.1,1.6,-31.6,5.73,2.32,-29.5,28.3
2012-06-02 00:05:00,0.0,,,,,,,,,,,0.96,-4.62,-27.27,-52,534,-919,21.7,16.7,-4.7,22.1,1.6,-31.7,5.73,2.31,-29.5,28.3
2012-06-02 00:06:00,0.0,,,,,,,,,,,1.03,-6.08,-27.26,-52,534,-919,21.7,16.6,-4.7,22.1,1.6,-31.6,5.73,2.28,-29.5,28.2
2012-06-02 00:07:00,0.0,,,,,,,,,,,1.05,-7.45,-27.26,-53,534,-919,21.7,16.4,-4.9,22.1,1.6,-31.7,5.73,2.32,-29.6,28.2
2012-06-02 00:08:00,0.0,,,,,,,,,,,0.99,-8.73,-27.25,-52,534,-919,21.7,16.0,-5.2,22.1,1.6,-31.6,5.73,2.28,-29.6,28.2
2012-06-02 00:09:00,0.0,,,,,,,,,,,0.96,-9.91,-27.26,-52,534,-919,21.7,16.5,-4.8,22.1,1.6,-31.6,5.73,2.30,-29.6,28.2
2012-06-02 00:10:00,0.0,,,,,,,,,,,1.00,-11.09,-27.25,-52,534,-919,21.7,15.8,-5.4,22.1,1.6,-31.7,5.73,2.32,-29.6,28.2
2012-06-02 00:11:00,0.0,,,,,,,,,,,1.05,-12.18,-27.26,-52,534,-919,21.7,15.7,-5.4,22.1,1.6,-31.6,5.73,2.28,-29.6,28.2
2012-06-02 00:12:00,0.0,,,,,,,,,,,1.02,-13.06,-27.26,-53,534,-919,21.7,16.0,-5.2,22.1,1.6,-31.7,5.73,2.32,-29.6,28.1
2012-06-02 00:13:00,0.0,,,,,,,,,,,0.95,-14.08,-27.27,-53,534,-919,21.7,15.9,-5.3,22.1,1.6,-31.7,5.73,2.30,-29.6,28.2
2012-06-02 00:14:00,0.0,,,,,,,,,,,0.97,-15.00,-27.28,-52,534,-919,21.7,16.1,-5.1,22.1,1.6,-31.7,5.73,2.29,-29.6,28.1
2012-06-02 00:15:00,0.0,,,,,,,,,,,1.02,-15.87,-27.30,-52,534,-919,21.7,16.3,-5.0,22.1,1.6,-31.7,5.73,2.34,-29.7,28.1
2012-06-02 00:16:00,0.0,,,,,,,,,,,1.04,-16.68,-27.30,-52,534,-919,21.7,16.2,-5.1,22.1,1.6,-31.7,5.73,2.29,-29.7,28.1
2012-06-02 00:17:00,0.0,,,,,,,,,,,1.01,-17.43,-27.32,-52,534,-919,21.7,16.6,-4.8,22.1,1.6,-31.7,5.73,2.31,-29.6,28.1
2012-06-02 00:18:00,0.0,,,,,,,,,,,0.94,-18.15,-27.33,-52,534,-919,21.6,16.7,-4.7,22.1,1.6,-31.7,5.73,2.32,-29.7,28.1
2012-06-02 00:19:00,0.0,,,,,,,,,,,0.98,-18.81,-27.34,-52,534,-919,21.7,16.8,-4.6,22.0,1.6,-31.7,5.73,2.29,-29.7,28.1
2012-06-02 00:20:00,0.0,,,,,,,,,,,1.02,-19.45,-27.36,-53,534,-918,21.6,16.9,-4.5,22.0,1.6,-31.6,5.73,2.32,-29.7,28.1
2012-06-02 00:21:00,0.0,,,,,,,,,,,1.04,-20.06,-27.38,-53,534,-919,21.6,16.3,-5.1,22.0,1.6,-31.7,5.73,2.31,-29.7,28.1
2012-06-02 00:22:00,0.0,,,,,,,,,,,0.99,-20.63,-27.39,-53,534,-919,21.6,15.9,-5.4,22.0,1.6,-31.7,5.73,2.29,-29.7,28.1
2012-06-02 00:23:00,0.0,,,,,,,,,,,0.95,-21.17,-27.40,-52,534,-919,21.6,16.0,-5.3,22.0,1.6,-31.8,5.73,2.33,-29.7,28.1
2012-06-02 00:24:00,0.0,,,,,,,,,,,0.97,-21.70,-27.42,-52,534,-919,21.6,16.7,-4.7,22.0,1.6,-31.9,5.73,2.30,-29.7,28.0
2012-06-02 00:25:00,0.0,,,,,,,,,,,1.00,-22.20,-27.44,-53,534,-919,21.6,16.5,-4.9,22.0,1.6,-31.9,5.73,2.30,-29.7,28.1
2012-06-02 00:26:00,0.0,,,,,,,,,,,1.04,-22.67,-27.45,-53,534,-919,21.6,16.3,-5.0,22.0,1.6,-31.9,5.73,2.33,-29.7,28.0
2012-06-02 00:27:00,0.0,,,,,,,,,,,1.00,-23.12,-27.46,-52,534,-919,21.6,16.3,-5.1,22.0,1.6,-31.9,5.73,2.29,-29.7,28.0
2012-06-02 00:28:00,0.0,,,,,,,,,,,0.94,-23.54,-27.48,-52,534,-919,21.6,16.8,-4.6,22.0,1.6,-31.9,5.73,2.31,-29.7,28.0
2012-06-02 00:29:00,0.0,,,,,,,,,,,0.97,-23.93,-27.50,-52,534,-919,21.6,17.3,-4.3,21.9,1.6,-31.9,5.73,2.33,-29.7,28.0
2012-06-02 00:30:00,0.0,,,,,,,,,,,1.00,-24.31,-27.51,-52,534,-918,21.6,17.2,-4.3,21.9,1.6,-31.9,5.73,2.29,-29.7,28.0
2012-06-02 00:31:00,0.0,,,,,,,,,,,1.05,-24.66,-27.53,-52,534,-919,21.6,16.8,-4.7,22.0,1.6,-31.9,5.73,2.33,-29.7,28.0
2012-06-02 00:32:00,0.0,,,,,,,,,,,1.00,-24.98,-27.54,-52,534,-919,21.6,16.9,-4.6,21.9,1.6,-31.9,5.73,2.32,-29.7,27.9
2012-06-02 00:33:00,0.0,,,,,,,,,,,0.95,-25.29,-27.55,-53,534,-919,21.6,17.6,-4.1,21.9,1.6,-31.9,5.73,2.29,-29.8,27.9
2012-06-02 00:34:00,0.0,,,,,,,,,,,0.95,-25.58,-27.57,-52,534,-919,21.6,17.1,-4.5,21.9,1.6,-31.9,5.73,2.33,-29.8,27.9
2012-06-02 00:35:00,0.0,,,,,,,,,,,0.98,-25.85,-27.57,-52,534,-919,21.5,17.4,-4.3,21.9,1.6,-31.9,5.73,2.32,-29.8,27.9
2012-06-02 00:36:00,0.0,,,,,,,,,,,1.02,-26.11,-27.59,-53,534,-919,21.5,17.5,-4.1,21.9,1.6,-32.0,5.73,2.30,-29.8,27.9
2012-06-02 00:37:00,0.0,,,,,,,,,,,1.04,-26.35,-27.60,-53,533,-919,21.5,17.5,-4.2,21.9,1.6,-32.0,5.73,2.33,-29.8,27.9
2012-06-02 00:38:00,0.0,,,,,,,,,,,0.98,-26.57,-27.61,-53,534,-919,21.5,17.5,-4.2,21.9,1.6,-32.1,5.73,2.30,-29.8,27.9
2012-06-02 00:39:00,0.0,,,,,,,,,,,0.94,-26.79,-27.62,-53,533,-919,21.5,17.3,-4.4,21.9,1.6,-32.1,5.73,2.30,-29.8,27.9
2012-06-02 00:40:00,0.0,,,,,,,,,,,0.96,-26.99,-27.63,-52,533,-919,21.5,17.8,-4.0,21.9,1.6,-32.2,5.73,2.33,-29.8,27.9
2012-06-02 00:41:00,0.0,,,,,,,,,,,1.00,-27.18,-27.64,-52,533,-919,21.5,17.8,-4.0,21.9,1.6,-32.1,5.73,2.30,-29.8,27.9
2012-06-02 00:42:00,0.0,,,,,,,,,,,1.03,-27.36,-27.65,-52,533,-919,21.5,17.7,-4.0,21.9,1.6,-32.1,5.73,2.31,-29.8,27.9
2012-06-02 00:43:00,0.0,,,,,,,,,,,1.01,-27.53,-27.66,-53,533,-919,21.5,17.2,-4.4,21.9,1.6,-32.1,5.73,2.33,-29.8,27.9
2012-06-02 00:44:00,0.0,,,,,,,,,,,0.98,-27.54,-27.67,-52,533,-919,21.5,17.1,-4.5,21.9,1.6,-32.1,5.73,2.30,-29.8,27.9
2012-06-02 00:45:00,0.0,,,,,,,,,,,0.99,-27.25,-27.67,-52,533,-919,21.5,17.5,-4.2,21.9,1.6,-32.1,5.73,2.32,-29.8,27.8
2012-06-02 00:46:00,0.0,,,,,,,,,,,0.94,-27.32,-27.68,-52,533,-919,21.4,17.7,-4.1,21.9,1.6,-32.2,5.73,2.32,-29.8,27.8
2012-06-02 00:47:00,0.0,,,,,,,,,,,0.96,-27.46,-27.69,-52,533,-920,21.5,17.5,-4.2,21.8,1.6,-32.2,5.73,2.30,-29.8,27.8
2012-06-02 00:48:00,0.0,,,,,,,,,,,0.98,-27.61,-27.70,-52,533,-919,21.4,17.3,-4.4,21.8,1.6,-32.2,5.73,2.33,-29.8,27.8
2012-06-02 00:49:00,0.0,,,,,,,,,,,0.95,-27.49,-27.71,-52,533,-919,21.4,16.6,-4.9,21.8,1.6,-32.2,5.73,2.31,-29.8,27.8
2012-06-02 00:50:00,0.0,,,,,,,,,,,1.03,-27.29,-27.72,-52,533,-919,21.4,16.2,-5.3,21.8,1.6,-32.2,5.73,2.30,-29.8,27.8
2012-06-02 00:51:00,0.0,,,,,,,,,,,1.00,-27.39,-27.73,-52,533,-918,21.4,16.2,-5.2,21.8,1.6,-32.2,5.73,2.33,-29.8,27.8
2012-06-02 00:52:00,0.0,,,,,,,,,,,0.94,-27.53,-27.74,-52,533,-919,21.4,16.0,-5.4,21.8,1.5,-32.3,5.73,2.30,-29.8,27.9
2012-06-02 00:53:00,0.0,,,,,,,,,,,1.00,-27.70,-27.15,-52,533,-919,21.4,16.2,-5.3,21.8,1.5,-32.4,5.73,2.31,-29.8,27.8
2012-06-02 00:54:00,0.0,,,,,,,,,,,0.79,-27.84,-25.40,-52,533,-919,21.4,16.8,-4.8,21.8,1.6,-32.2,5.73,2.33,-29.8,27.8
2012-06-02 00:55:00,0.0,,,,,,,,,,,0.81,-27.92,-23.42,-52,533,-919,21.4,17.5,-4.3,21.8,1.7,-31.4,5.73,2.30,-29.8,27.8
2012-06-02 00:56:00,0.0,,,,,,,,,,,0.89,-27.95,-21.45,-52,533,-919,21.4,16.8,-4.8,21.8,1.8,-30.7,5.73,2.32,-29.8,27.8
2012-06-02 00:57:00,0.0,,,,,,,,,,,0.96,-27.95,-19.55,-52,533,-919,21.4,16.4,-5.2,21.8,1.9,-30.4,5.73,2.32,-29.8,27.8
2012-06-02 00:58:00,0.0,,,,,,,,,,,0.82,-27.93,-17.74,-52,533,-919,21.4,16.9,-4.8,21.8,1.9,-30.3,5.73,2.29,-29.8,27.8
2012-06-02 00:59:00,0.0,,,,,,,,,,,0.79,-27.90,-16.03,-52,533,-918,21.4,17.0,-4.7,21.7,1.9,-30.3,5.73,2.33,-29.8,27.8
2012-06-02 01:00:00,0.0,,,,,,,,,,,0.86,-27.86,-14.39,-52,533,-919,21.4,16.9,-4.7,21.7,1.9,-30.4,5.73,2.29,-29.8,27.8
2012-06-02 01:01:00,0.0,1.8917,0.0010,401.49,0.20,-0.6,2.3,138.05,30.42,24.65,36.48,0.93,-27.82,-12.85,-52,533,-919,21.4,16.8,-4.8,21.7,1.9,-30.4,5.73,2.32,-29.8,27.7
2012-06-02 01:02:00,0.0,1.8918,0.0009,401.46,0.18,-0.3,3.5,138.04,30.42,24.64,36.48,0.95,-27.78,-11.38,-52,533,-919,21.4,17.1,-4.6,21.7,1.9,-30.4,5.73,2.31,-29.8,27.7
2012-06-02 01:03:00,0.0,1.8922,0.0007,401.39,0.18,-1.0,0.0,138.04,30.43,24.64,36.48,0.81,-27.74,-10.00,-52,533,-919,21.4,17.0,-4.7,21.7,1.9,-30.5,5.73,2.30,-29.8,27.8
2012-06-02 01:04:00,0.0,,,,,,,,,,,0.83,-27.70,-8.68,-52,533,-919,21.4,16.8,-4.8,21.8,1.8,-30.5,5.73,2.32,-29.8,27.7
2012-06-02 01:05:00,0.0,,,,,,,,,,,0.89,-27.66,-7.42,-52,533,-919,21.4,16.9,-4.8,21.8,1.8,-30.5,5.73,2.28,-29.8,27.8
2012-06-02 01:06:00,0.0,,,,,,,,,,,0.93,-27.63,-6.23,-52,533,-919,21.4,17.3,-4.5,21.8,1.8,-30.6,5.73,2.33,-29.8,27.8
2012-06-02 01:07:00,0.0,,,,,,,,,,,0.95,-27.58,-5.10,-52,533,-919,21.4,17.5,-4.3,21.8,1.8,-30.7,5.73,2.30,-29.8,27.8
2012-06-02 01:08:00,0.0,,,,,,,,,,,0.87,-27.55,-4.02,-52,533,-920,21.4,17.7,-4.1,21.8,1.8,-30.7,5.73,2.30,-29.8,27.8
2012-06-02 01:09:00,0.0,,,,,,,,,,,0.79,-27.51,-2.99,-52,533,-919,21.4,18.0,-3.9,21.8,1.8,-30.7,5.73,2.32,-29.7,27.8
2012-06-02 01:10:00,0.0,,,,,,,,,,,0.88,-27.47,-2.00,-52,533,-919,21.4,17.2,-4.5,21.8,1.8,-30.7,5.73,2.28,-29.7,27.8
2012-06-02 01:11:00,0.0,,,,,,,,,,,0.91,-27.44,-1.07,-52,533,-919,21.4,17.3,-4.4,21.8,1.8,-30.7,5.73,2.32,-29.7,27.9
2012-06-02 01:12:00,0.0,,,,,,,,,,,0.93,-27.40,-0.19,-52,533,-919,21.5,16.7,-4.8,21.7,1.8,-30.7,5.73,2.31,-29.7,27.9
2012-06-02 01:13:00,0.0,,,,,,,,,,,0.95,-27.37,0.66,-52,533,-919,21.5,16.6,-4.9,21.8,1.8,-30.8,5.73,2.29,-29.7,27.9
2012-06-02 01:14:00,0.0,,,,,,,,,,,0.86,-27.34,1.45,-52,533,-919,21.5,16.2,-5.2,21.8,1.8,-30.8,5.73,2.32,-29.6,27.9
2012-06-02 01:15:00,0.0,,,,,,,,,,,0.84,-27.31,2.20,-52,533,-919,21.5,16.5,-5.0,21.8,1.8,-30.8,5.73,2.29,-29.6,28.0
2012-06-02 01:16:00,0.0,,,,,,,,,,,0.87,-27.27,2.83,-52,533,-919,21.5,16.8,-4.8,21.8,1.8,-30.8,5.73,2.30,-29.6,28.0
2012-06-02 01:17:00,0.0,,,,,,,,,,,0.91,-27.24,3.20,-52,533,-919,21.5,16.6,-4.9,21.8,1.8,-30.8,5.73,2.32,-29.6,28.0
2012-06-02 01:18:00,0.0,,,,,,,,,,,0.93,-27.21,3.46,-52,533,-920,21.5,16.8,-4.8,21.8,1.8,-30.8,5.73,2.29,-29.6,28.1
2012-06-02 01:19:00,0.0,,,,,,,,,,,0.95,-27.19,3.89,-52,533,-920,21.5,17.7,-4.1,21.8,1.8,-30.9,5.73,2.30,-29.6,28.0
2012-06-02 01:20:00,0.0,,,,,,,,,,,0.95,-27.16,4.47,-52,533,-919,21.5,17.4,-4.3,21.8,1.8,-31.0,5.73,2.32,-29.6,28.1
2012-06-02 01:21:00,0.0,,,,,,,,,,,0.88,-27.13,5.08,-52,533,-919,21.5,17.0,-4.6,21.8,1.8,-31.0,5.73,2.28,-29.6,28.1
2012-06-02 01:22:00,0.0,,,,,,,,,,,0.86,-27.11,5.64,-52,533,-919,21.5,17.8,-4.0,21.8,1.8,-31.0,5.73,2.31,-29.5,28.1
2012-06-02 01:23:00,0.0,,,,,,,,,,,0.86,-27.08,6.19,-52,533,-919,21.5,17.7,-4.1,21.8,1.8,-31.0,5.73,2.31,-29.5,28.1
2012-06-02 01:24:00,0.0,,,,,,,,,,,0.90,-27.06,6.71,-52,533,-919,21.5,17.6,-4.1,21.8,1.8,-31.0,5.73,2.28,-29.5,28.1
2012-06-02 01:25:00,0.0,,,,,,,,,,,0.93,-27.04,7.20,-52,533,-919,21.5,17.9,-3.9,21.8,1.8,-30.9,5.73,2.32,-29.5,28.2
2012-06-02 01:26:00,0.0,,,,,,,,,,,0.95,-27.01,7.66,-52,533,-919,21.5,17.8,-4.0,21.8,1.8,-30.9,5.73,2.30,-29.5,28.2
2012-06-02 01:27:00,0.0,,,,,,,,,,,0.96,-26.99,8.10,-52,533,-919,21.5,17.2,-4.4,21.9,1.8,-31.0,5.73,2.28,-29.4,28.2
2012-06-02 01:28:00,0.0,,,,,,,,,,,0.89,-26.97,8.53,-52,533,-919,21.5,17.3,-4.3,21.9,1.8,-30.9,5.73,2.32,-29.4,28.2
2012-06-02 01:29:00,0.0,,,,,,,,,,,0.86,-26.95,8.94,-52,533,-919,21.5,17.2,-4.4,21.9,1.8,-30.9,5.73,2.29,-29.4,28.2
2012-06-02 01:30:00,0.0,,,,,,,,,,,0.88,-26.93,9.34,-52,533,-920,21.5,17.4,-4.2,21.9,1.8,-31.0,5.73,2.28,-29.4,28.2
2012-06-02 01:31:00,0.0,,,,,,,,,,,0.88,-26.92,9.73,-52,533,-920,21.5,17.4,-4.3,21.9,1.8,-30.9,5.73,2.32,-29.4,28.2
2012-06-02 01:32:00,0.0,,,,,,,,,,,0.90,-26.89,10.10,-52,533,-919,21.5,17.7,-4.1,21.9,1.8,-30.9,5.73,2.29,-29.4,28.2
2012-06-02 01:33:00,0.0,,,,,,,,,,,0.92,-26.88,10.45,-52,533,-919,21.5,17.8,-4.0,21.9,1.8,-31.0,5.73,2.29,-29.4,28.3
2012-06-02 01:34:00,0.0,,,,,,,,,,,0.95,-26.86,10.78,-52,533,-919,21.5,18.1,-3.7,21.9,1.8,-30.9,5.73,2.32,-29.4,28.3
2012-06-02 01:35:00,0.0,,,,,,,,,,,0.95,-26.84,11.11,-52,533,-919,21.5,18.1,-3.7,21.9,1.8,-30.9,5.73,2.28,-29.4,28.3
2012-06-02 01:36:00,0.0,,,,,,,,,,,0.94,-26.82,11.44,-52,534,-920,21.5,18.1,-3.7,21.9,1.8,-31.0,5.73,2.29,-29.3,28.3
2012-06-02 01:37:00,0.0,,,,,,,,,,,0.88,-26.81,11.76,-52,534,-920,21.5,18.2,-3.6,21.9,1.8,-30.9,5.73,2.32,-29.3,28.4
2012-06-02 01:38:00,0.0,,,,,,,,,,,0.88,-26.80,12.06,-52,533,-919,21.6,18.4,-3.5,21.9,1.8,-31.0,5.73,2.27,-29.3,28.4
2012-06-02 01:39:00,0.0,,,,,,,,,,,0.90,-26.78,12.35,-52,533,-919,21.6,18.2,-3.6,21.9,1.8,-30.9,5.73,2.30,-29.3,28.4
2012-06-02 01:40:00,0.0,,,,,,,,,,,0.88,-26.77,12.64,-52,534,-919,21.6,18.2,-3.6,21.9,1.8,-30.9,5.73,2.31,-29.3,28.4
2012-06-02 01:41:00,0.0,,,,,,,,,,,0.90,-26.75,12.91,-52,533,-919,21.6,18.2,-3.6,21.9,1.8,-30.9,5.73,2.27,-29.3,28.4
2012-06-02 01:42:00,0.0,,,,,,,,,,,0.93,-26.74,13.16,-52,534,-919,21.6,18.2,-3.6,21.9,1.8,-30.9,5.73,2.31,-29.3,28.4
2012-06-02 01:43:00,0.0,,,,,,,,,,,0.94,-26.73,13.41,-52,534,-920,21.6,18.6,-3.3,21.9,1.8,-30.9,5.73,2.30,-29.2,28.4
2012-06-02 01:44:00,0.0,,,,,,,,,,,0.95,-26.72,13.65,-52,534,-920,21.6,19.2,-2.9,21.9,1.8,-30.8,5.73,2.27,-29.3,28.3
2012-06-02 01:45:00,0.0,,,,,,,,,,,0.95,-26.70,13.87,-52,534,-920,21.5,18.5,-3.4,21.9,1.8,-30.8,5.73,2.31,-29.3,28.3
2012-06-02 01:46:00,0.0,,,,,,,,,,,0.91,-26.70,14.10,-52,533,-920,21.5,18.5,-3.4,21.9,1.8,-30.8,5.73,2.29,-29.3,28.3
2012-06-02 01:47:00,0.0,,,,,,,,,,,0.88,-26.68,14.31,-52,534,-919,21.5,18.5,-3.4,21.9,1.8,-30.8,5.73,2.28,-29.3,28.3
2012-06-02 01:48:00,0.0,,,,,,,,,,,0.87,-26.67,14.50,-52,534,-919,21.5,17.9,-3.9,21.9,1.8,-30.8,5.73,2.32,-29.2,28.4
2012-06-02 01:49:00,0.0,,,,,,,,,,,0.88,-26.66,14.69,-52,534,-919,21.6,17.7,-4.0,21.9,1.8,-30.8,5.73,2.28,-29.2,28.4
2012-06-02 01:50:00,0.0,,,,,,,,,,,0.91,-26.65,14.88,-52,534,-920,21.5,18.5,-3.4,21.9,1.8,-30.8,5.73,2.29,-29.2,28.3
2012-06-02 01:51:00,0.0,,,,,,,,,,,0.91,-26.64,15.05,-52,534,-920,21.5,18.8,-3.2,21.9,1.8,-30.8,5.73,2.32,-29.2,28.4
2012-06-02 01:52:00,0.0,,,,,,,,,,,0.93,-26.64,15.22,-52,534,-919,21.5,18.6,-3.3,21.9,1.8,-30.8,5.73,2.28,-29.3,28.4
2012-06-02 01:53:00,0.0,,,,,,,,,,,0.94,-26.63,15.38,-52,534,-919,21.5,18.6,-3.4,21.9,1.8,-30.8,5.73,2.29,-29.3,28.4
2012-06-02 01:54:00,0.0,,,,,,,,,,,0.94,-26.62,15.53,-52,533,-919,21.5,18.3,-3.6,21.9,1.8,-30.8,5.73,2.31,-29.3,28.4
2012-06-02 01:55:00,0.0,,,,,,,,,,,0.94,-26.61,15.67,-52,534,-919,21.5,17.9,-3.9,21.9,1.8,-30.8,5.73,2.28,-29.3,28.4
2012-06-02 01:56:00,0.0,,,,,,,,,,,0.91,-26.60,15.81,-52,534,-920,21.6,17.7,-4.0,21.9,1.8,-30.8,5.73,2.30,-29.2,28.4
2012-06-02 01:57:00,0.0,,,,,,,,,,,0.87,-26.59,15.95,-52,534,-920,21.5,18.4,-3.5,21.9,1.8,-30.8,5.73,2.32,-29.2,28.4
2012-06-02 01:58:00,0.0,,,,,,,,,,,0.87,-26.59,16.08,-52,534,-920,21.5,18.7,-3.3,21.9,1.8,-30.8,5.73,2.27,-29.2,28.4
2012-06-02 01:59:00,0.0,,,,,,,,,,,0.89,-26.58,16.19,-52,534,-919,21.5,18.0,-3.8,21.9,1.8,-30.8,5.73,2.30,-29.2,28.4
2012-06-02 02:00:00,0.0,,,,,,,,,,,0.91,-26.58,16.31,-52,534,-919,21.5,18.1,-3.7,21.9,1.8,-30.8,5.73,2.32,-29.2,28.3
2012-06-02 02:01:00,0.0,1.8917,0.0010,401.49,0.20,-0.6,2.3,138.05,30.42,24.65,36.48,0.91,-26.56,16.43,-52,534,-920,21.5,18.6,-3.3,21.9,1.8,-30.8,5.73,2.28,-29.2,28.3
2012-06-02 02:02:00,0.0,1.8918,0.0009,401.46,0.18,-0.3,3.5,138.04,30.42,24.64,36.48,0.93,-26.56,16.54,-52,534,-920,21.5,19.1,-3.0,21.9,1.8,-30.8,5.73,2.31,-29.2,28.3
2012-06-02 02:03:00,0.0,1.8922,0.0007,401.39,0.18,-1.0,0.0,138.04,30.43,24.64,36.48,0.94,-26.56,16.64,-52,534,-920,21.5,19.6,-2.7,21.9,1.8,-30.8,5.73,2.31,-29.2,28.4
2012-06-02 02:04:00,0.0,,,,,,,,,,,0.95,-26.55,16.74,-52,534,-919,21.5,19.7,-2.6,21.9,1.8,-30.8,5.73,2.28,-29.2,28.4
2012-06-02 02:05:00,0.0,,,,,,,,,,,0.95,-26.54,16.83,-52,534,-919,21.5,20.0,-2.4,21.9,1.8,-30.8,5.73,2.31,-29.2,28.3
2012-06-02 02:06:00,0.0,,,,,,,,,,,0.93,-26.54,16.92,-52,534,-920,21.5,20.1,-2.3,21.9,1.8,-30.8,5.73,2.32,-29.2,28.3
2012-06-02 02:07:00,0.0,,,,,,,,,,,0.90,-26.53,17.00,-52,534,-920,21.5,20.3,-2.2,21.9,1.8,-30.8,5.73,2.29,-29.2,28.3
2012-06-02 02:08:00,0.0,,,,,,,,,,,0.90,-26.52,17.09,-52,534,-920,21.5,21.0,-1.8,21.9,1.8,-30.7,5.73,2.31,-29.2,28.3
2012-06-02 02:09:00,0.0,,,,,,,,,,,0.89,-26.52,17.16,-52,534,-920,21.5,20.2,-2.2,21.9,1.8,-30.7,5.73,2.32,-29.2,28.3
2012-06-02 02:10:00,0.0,,,,,,,,,,,0.88,-26.52,17.24,-52,534,-920,21.5,19.7,-2.6,21.9,1.8,-30.6,5.73,2.29,-29.2,28.3
2012-06-02 02:11:00,0.0,,,,,,,,,,,0.90,-26.51,17.32,-52,534,-919,21.5,20.7,-1.9,21.9,1.8,-30.6,5.73,2.30,-29.2,28.3
2012-06-02 02:12:00,0.0,,,,,,,,,,,0.92,-26.51,17.38,-52,534,-919,21.5,20.5,-2.1,21.9,1.8,-30.6,5.73,2.33,-29.2,28.3
2012-06-02 02:13:00,0.0,,,,,,,,,,,0.93,-26.50,17.45,-52,534,-919,21.5,20.0,-2.4,21.9,1.8,-30.6,5.73,2.29,-29.2,28.3
2012-06-02 02:14:00,0.0,,,,,,,,,,,0.94,-26.49,17.51,-52,534,-920,21.5,19.7,-2.6,21.9,1.8,-30.6,5.73,2.30,-29.2,28.3
2012-06-02 02:15:00,0.0,,,,,,,,,,,0.95,-26.49,17.57,-52,534,-920,21.5,19.5,-2.7,21.9,1.8,-30.6,5.73,2.33,-29.2,28.3
2012-06-02 02:16:00,0.0,,,,,,,,,,,0.95,-26.49,17.63,-52,534,-920,21.5,20.1,-2.4,21.9,1.8,-30.6,5.73,2.30,-29.2,28.3
2012-06-02 02:17:00,0.0,,,,,,,,,,,0.93,-26.49,17.69,-52,534,-920,21.5,20.8,-1.8,21.9,1.8,-30.6,5.73,2.29,-29.2,28.3
2012-06-02 02:18:00,0.0,,,,,,,,,,,0.89,-26.48,17.74,-52,534,-919,21.5,20.5,-2.1,21.9,1.8,-30.6,5.73,2.32,-29.2,28.3
2012-06-02 02:19:00,0.0,,,,,,,,,,,0.88,-26.48,17.79,-52,534,-919,21.5,20.1,-2.3,21.9,1.8,-30.6,5.73,2.31,-29.2,28.4
2012-06-02 02:20:00,0.0,,,,,,,,,,,0.88,-26.47,17.84,-52,534,-919,21.5,20.0,-2.4,21.9,1.8,-30.6,5.73,2.28,-29.2,28.4
2012-06-02 02:21:00,0.0,,,,,,,,,,,0.90,-26.47,17.88,-52,534,-920,21.5,20.0,-2.4,21.9,1.8,-30.6,5.73,2.32,-29.1,28.4
2012-06-02 02:22:00,0.0,,,,,,,,,,,0.90,-26.47,17.93,-52,534,-920,21.5,19.8,-2.5,21.9,1.8,-30.6,5.73,2.31,-29.1,28.4
2012-06-02 02:23:00,0.0,,,,,,,,,,,0.92,-26.47,17.97,-52,534,-920,21.5,19.7,-2.6,21.9,1.8,-30.6,5.73,2.28,-29.1,28.4
2012-06-02 02:24:00,0.0,,,,,,,,,,,0.92,-26.47,18.01,-52,534,-919,21.5,18.9,-3.2,21.9,1.8,-30.6,5.73,2.31,-29.1,28.4
2012-06-02 02:25:00,0.0,,,,,,,,,,,0.94,-26.47,18.05,-52,534,-919,21.5,19.0,-3.1,21.9,1.8,-30.7,5.73,2.32,-29.1,28.4
2012-06-02 02:26:00,0.0,,,,,,,,,,,0.94,-26.47,18.09,-52,534,-919,21.5,19.1,-3.1,21.9,1.8,-30.8,5.73,2.29,-29.2,28.4
2012-06-02 02:27:00,0.0,,,,,,,,,,,0.94,-26.47,18.13,-52,534,-919,21.5,18.2,-3.7,21.9,1.8,-30.8,5.73,2.31,-29.1,28.5
2012-06-02 02:28:00,0.0,,,,,,,,,,,0.93,-26.47,18.16,-52,534,-920,21.5,17.6,-4.1,21.9,1.8,-30.8,5.73,2.33,-29.1,28.5
2012-06-02 02:29:00,0.0,,,,,,,,,,,0.91,-26.47,18.19,-52,534,-920,21.5,17.8,-4.0,21.9,1.8,-30.8,5.73,2.30,-29.1,28.5
2012-06-02 02:30:00,0.0,,,,,,,,,,,0.87,-26.47,18.22,-52,534,-920,21.5,18.8,-3.3,21.9,1.8,-30.8,5.73,2.29,-29.1,28.5
2012-06-02 02:31:00,0.0,,,,,,,,,,,0.89,-26.47,18.25,-52,534,-919,21.5,17.5,-4.2,21.9,1.8,-30.8,5.73,2.33,-29.1,28.5
2012-06-02 02:32:00,0.0,,,,,,,,,,,0.88,-26.47,18.28,-52,534,-919,21.5,17.0,-4.6,21.9,1.8,-30.8,5.73,2.31,-29.1,28.4
2012-06-02 02:33:00,0.0,,,,,,,,,,,0.90,-26.48,18.31,-52,534,-919,21.5,18.1,-3.8,21.9,1.8,-30.7,5.73,2.29,-29.1,28.5
2012-06-02 02:34:00,0.0,,,,,,,,,,,0.91,-26.48,18.34,-52,534,-919,21.5,19.1,-3.0,21.9,1.8,-30.8,5.73,2.32,-29.1,28.5
2012-06-02 02:35:00,0.0,,,,,,,,,,,0.92,-26.48,18.36,-52,534,-920,21.5,18.5,-3.5,21.9,1.8,-30.8,5.73,2.32,-29.1,28.6
2012-06-02 02:36:00,0.0,,,,,,,,,,,0.94,-26.49,18.38,-52,534,-920,21.5,18.4,-3.6,21.9,1.8,-30.8,5.73,2.29,-29.1,28.5
2012-06-02 02:37:00,0.0,,,,,,,,,,,0.95,-26.49,18.41,-52,534,-920,21.5,18.7,-3.3,21.9,1.8,-30.8,5.73,2.31,-29.1,28.5
2012-06-02 02:38:00,0.0,,,,,,,,,,,0.95,-26.49,18.43,-52,534,-920,21.4,18.6,-3.5,21.9,1.8,-30.8,5.73,2.33,-29.1,28.5
2012-06-02 02:39:00,0.0,,,,,,,,,,,0.94,-26.49,18.45,-52,534,-920,21.4,18.4,-3.6,21.9,1.8,-30.8,5.73,2.30,-29.0,28.5
2012-06-02 02:40:00,0.0,,,,,,,,,,,0.92,-26.48,18.48,-52,534,-919,21.5,18.7,-3.4,21.9,1.8,-30.8,5.73,2.29,-29.1,28.5
2012-06-02 02:41:00,0.0,,,,,,,,,,,0.89,-26.49,18.50,-52,534,-919,21.5,19.0,-3.1,21.9,1.8,-30.8,5.73,2.32,-29.1,28.5
2012-06-02 02:42:00,0.0,,,,,,,,,,,0.90,-26.49,18.51,-52,534,-920,21.5,19.4,-2.9,21.9,1.8,-30.8,5.73,2.33,-29.1,28.5
2012-06-02 02:43:00,0.0,,,,,,,,,,,0.89,-26.49,18.53,-52,534,-920,21.5,19.3,-2.9,21.9,1.8,-30.7,5.73,2.29,-29.1,28.5
2012-06-02 02:44:00,0.0,,,,,,,,,,,0.89,-26.49,18.55,-52,534,-920,21.4,19.2,-3.0,21.9,1.8,-30.7,5.73,2.30,-29.1,28.5
2012-06-02 02:45:00,0.0,,,,,,,,,,,0.91,-26.49,18.57,-52,534,-921,21.5,19.6,-2.7,21.9,1.8,-30.8,5.73,2.33,-29.1,28.5
2012-06-02 02:46:00,0.0,,,,,,,,,,,0.92,-26.49,18.58,-52,534,-920,21.4,19.7,-2.7,21.9,1.8,-30.8,5.73,2.30,-29.0,28.5
2012-06-02 02:47:00,0.0,,,,,,,,,,,0.94,-26.49,18.59,-52,534,-920,21.5,19.9,-2.5,21.9,1.8,-30.7,5.73,2.30,-29.1,28.4
2012-06-02 02:48:00,0.0,,,,,,,,,,,0.93,-26.49,18.61,-52,534,-920,21.5,20.0,-2.4,21.9,1.8,-30.8,5.73,2.32,-29.1,28.4
2012-06-02 02:49:00,0.0,,,,,,,,,,,0.95,-26.49,18.62,-52,534,-920,21.5,19.9,-2.5,21.9,1.8,-30.8,5.73,2.32,-29.1,28.5
2012-06-02 02:50:00,0.0,,,,,,,,,,,0.99,-26.49,18.54,-52,534,-920,21.5,19.8,-2.6,21.9,1.8,-30.9,5.73,2.29,-29.1,28.5
2012-06-02 02:51:00,0.0,,,,,,,,,,,1.00,-26.48,17.14,-52,535,-920,21.4,19.3,-2.9,21.9,1.8,-30.9,5.73,2.31,-29.1,28.5
2012-06-02 02:52:00,0.0,,,,,,,,,,,1.08,-26.47,14.87,-52,535,-920,21.4,19.0,-3.1,21.9,1.8,-30.8,5.73,2.33,-29.1,28.5
2012-06-02 02:53:00,0.0,,,,,,,,,,,1.03,-26.48,12.48,-52,534,-920,21.4,19.0,-3.2,21.9,1.8,-30.9,5.73,2.31,-29.1,28.4
2012-06-02 02:54:00,0.0,,,,,,,,,,,0.97,-26.48,10.12,-52,535,-921,21.5,19.2,-3.0,21.9,1.8,-30.9,5.73,2.29,-29.1,28.5
2012-06-02 02:55:00,0.0,,,,,,,,,,,1.01,-26.48,7.82,-52,534,-921,21.4,19.1,-3.1,21.9,1.8,-30.9,5.73,2.33,-29.1,28.5
2012-06-02 02:56:00,0.0,,,,,,,,,,,1.09,-26.48,5.64,-52,535,-921,21.4,19.0,-3.2,21.9,1.8,-30.9,5.73,2.33,-29.0,28.5
2012-06-02 02:57:00,0.0,,,,,,,,,,,0.99,-26.49,3.55,-52,535,-921,21.5,18.8,-3.3,21.9,1.8,-30.9,5.73,2.29,-29.1,28.5
2012-06-02 02:58:00,0.0,,,,,,,,,,,0.97,-26.49,1.59,-52,535,-920,21.4,19.2,-3.0,21.9,1.8,-30.9,5.73,2.30,-29.0,28.5
2012-06-02 02:59:00,0.0,,,,,,,,,,,1.06,-26.48,-0.29,-52,534,-920,21.5,19.6,-2.7,21.9,1.7,-31.0,5.73,2.33,-29.0,28.5
2012-06-02 03:00:00,0.0,,,,,,,,,,,1.04,-26.49,-2.02,-52,534,-920,21.5,19.1,-3.0,21.9,1.8,-30.9,5.73,2.31,-29.0,28.5
2012-06-02 03:01:00,0.0,1.8917,0.0010,401.49,0.20,-0.6,2.3,138.05,30.42,24.65,36.48,0.96,-26.49,-3.51,-52,535,-920,21.5,18.9,-3.2,21.9,1.7,-31.0,5.73,2.29,-29.0,28.5
2012-06-02 03:02:00,0.0,1.8918,0.0009,401.46,0.18,-0.3,3.5,138.04,30.42,24.64,36.48,0.99,-26.49,-5.13,-52,535,-920,21.5,18.8,-3.3,21.9,1.8,-30.9,5.73,2.31,-29.0,28.5
2012-06-02 03:03:00,0.0,1.8922,0.0007,401.39,0.18,-1.0,0.0,138.04,30.43,24.64,36.48,1.06,-26.49,-6.45,-52,535,-921,21.5,18.4,-3.6,21.9,1.8,-31.0,5.73,2.33,-29.0,28.5
2012-06-02 03:04:00,0.0,,,,,,,,,,,1.03,-26.49,-7.83,-52,534,-921,21.4,18.5,-3.5,21.9,1.8,-30.9,5.73,2.32,-29.0,28.6
2012-06-02 03:05:00,0.0,,,,,,,,,,,0.95,-26.50,-9.06,-52,535,-921,21.5,18.9,-3.2,21.9,1.8,-31.0,5.73,2.30,-29.0,28.5
2012-06-02 03:06:00,0.0,,,,,,,,,,,0.97,-26.51,-10.21,-52,534,-920,21.4,18.6,-3.5,21.9,1.8,-30.9,5.73,2.30,-29.1,28.4
2012-06-02 03:07:00,0.0,,,,,,,,,,,1.04,-26.52,-11.36,-52,534,-920,21.4,18.9,-3.2,21.9,1.8,-30.9,5.73,2.32,-29.1,28.4
2012-06-02 03:08:00,0.0,,,,,,,,,,,1.05,-26.53,-12.45,-52,534,-920,21.4,18.7,-3.4,21.9,1.8,-31.0,5.73,2.33,-29.1,28.4
2012-06-02 03:09:00,0.0,,,,,,,,,,,0.97,-26.55,-13.49,-52,535,-920,21.4,18.5,-3.6,21.9,1.8,-31.0,5.73,2.32,-29.1,28.4
2012-06-02 03:10:00,0.0,,,,,,,,,,,0.96,-26.57,-14.48,-52,534,-920,21.4,18.6,-3.5,21.9,1.8,-30.9,5.73,2.30,-29.1,28.5
2012-06-02 03:11:00,0.0,,,,,,,,,,,1.00,-26.58,-15.40,-52,534,-921,21.4,17.7,-4.1,21.9,1.8,-31.0,5.73,2.31,-29.2,28.4
2012-06-02 03:12:00,0.0,,,,,,,,,,,1.04,-26.60,-16.28,-52,534,-921,21.4,17.7,-4.1,21.9,1.8,-31.0,5.73,2.33,-29.2,28.4
2012-06-02 03:13:00,0.0,,,,,,,,,,,1.02,-26.62,-17.12,-52,534,-921,21.4,18.2,-3.8,21.8,1.7,-31.1,5.73,2.32,-29.2,28.4
2012-06-02 03:14:00,0.0,,,,,,,,,,,0.95,-26.64,-17.79,-52,534,-921,21.4,19.4,-2.9,21.8,1.7,-31.1,5.73,2.30,-29.2,28.4
2012-06-02 03:15:00,0.0,,,,,,,,,,,0.96,-26.66,-18.52,-52,534,-921,21.3,19.9,-2.6,21.8,1.7,-31.1,5.73,2.31,-29.2,28.4
2012-06-02 03:16:00,0.0,,,,,,,,,,,1.02,-26.68,-19.23,-52,534,-921,21.3,19.8,-2.7,21.8,1.7,-31.2,5.73,2.33,-29.2,28.3